Time,TemperatureF,DewpointF,PressureIn,WindDirection,WindDirectionDegrees,WindSpeedMPH,WindSpeedGustMPH,Humidity,HourlyPrecipIn,Conditions,Clouds,dailyrainin,SoftwareType,DateUTC
2013-06-04 00:02:00,64.9,54.5,29.84,SSE,156,6.4,6.4,69,0.00,CLR,SKC,0.00,WeatherDisplay:10.37,2013-06-04 05:02:00,
2013-06-04 00:07:00,64.8,54.4,29.84,SE,135,6.9,6.9,69,0.00,CLR,SKC,0.00,WeatherDisplay:10.37,2013-06-04 05:07:00,
2013-06-04 00:12:00,64.5,54.5,29.84,SE,128,8.5,8.5,70,0.00,CLR,SKC,0.00,WeatherDisplay:10.37,2013-06-04 05:12:00,
2013-06-04 00:17:00,64.3,54.7,29.84,ESE,121,8.5,8.5,71,0.00,CLR,SKC,0.00,WeatherDisplay:10.37,2013-06-04 05:17:00,
2013-06-04 00:22:00,64.3,54.7,29.84,SE,141,6.4,6.4,71,0.00,CLR,SKC,0.00,WeatherDisplay:10.37,2013-06-04 05:22:00,
2013-06-04 00:27:00,64.3,54.7,29.83,SE,134,7.4,7.4,71,0.00,CLR,SKC,0.00,WeatherDisplay:10.37,2013-06-04 05:27:00,
2013-06-04 00:32:00,64.3,54.7,29.84,ESE,120,5.3,5.3,71,0.00,CLR,SKC,0.00,WeatherDisplay:10.37,2013-06-04 05:32:00,
2013-06-04 00:37:00,64.2,54.6,29.83,East,96,9.2,9.2,71,0.00,CLR,SKC,0.00,WeatherDisplay:10.37,2013-06-04 05:37:00,
2013-06-04 00:42:00,64.1,54.9,29.82,ESE,108,7.4,7.4,72,0.00,CLR,SKC,0.00,WeatherDisplay:10.37,2013-06-04 05:42:00,
2013-06-04 00:47:00,64.0,54.8,29.82,East,84,8.5,8.5,72,0.00,CLR,SKC,0.00,WeatherDisplay:10.37,2013-06-04 05:47:00,
2013-06-04 00:52:00,63.9,55.1,29.82,ESE,121,8.5,8.5,73,0.00,CLR,SKC,0.00,WeatherDisplay:10.37,2013-06-04 05:52:00,
2013-06-04 00:57:00,63.8,55.0,29.82,ESE,110,11.7,11.7,73,0.00,CLR,SKC,0.00,WeatherDisplay:10.37,2013-06-04 05:57:00,
2013-06-04 01:02:00,63.9,55.1,29.82,SE,125,10.6,10.6,73,0.00,CLR,SKC,0.00,WeatherDisplay:10.37,2013-06-04 06:02:00,
2013-06-04 01:07:00,63.7,54.9,29.81,ESE,117,11.7,11.7,73,0.00,CLR,SKC,0.00,WeatherDisplay:10.37,2013-06-04 06:07:00,
2013-06-04 01:12:00,63.8,55.0,29.80,ESE,104,12.7,12.7,73,0.00,CLR,SKC,0.00,WeatherDisplay:10.37,2013-06-04 06:12:00,
2013-06-04 01:17:00,63.8,55.4,29.80,ESE,119,13.8,13.8,74,0.00,CLR,SKC,0.00,WeatherDisplay:10.37,2013-06-04 06:17:00,
2013-06-04 01:22:00,63.8,55.4,29.80,SE,136,13.8,13.8,74,0.00,CLR,SKC,0.00,WeatherDisplay:10.37,2013-06-04 06:22:00,
2013-06-04 01:27:00,63.8,55.4,29.80,ESE,111,13.8,13.8,74,0.00,CLR,SKC,0.00,WeatherDisplay:10.37,2013-06-04 06:27:00,
2013-06-04 01:32:00,63.8,55.0,29.79,SE,136,12.7,12.7,73,0.00,CLR,SKC,0.00,WeatherDisplay:10.37,2013-06-04 06:32:00,
2013-06-04 01:37:00,63.9,55.1,29.79,ESE,110,13.8,13.8,73,0.00,CLR,SKC,0.00,WeatherDisplay:10.37,2013-06-04 06:37:00,
2013-06-04 01:42:00,63.8,55.4,29.79,ESE,113,15.0,15.0,74,0.00,CLR,SKC,0.00,WeatherDisplay:10.37,2013-06-04 06:42:00,
2013-06-04 01:47:00,63.8,55.4,29.79,ESE,105,12.7,12.7,74,0.00,CLR,SKC,0.00,WeatherDisplay:10.37,2013-06-04 06:47:00,
2013-06-04 01:52:00,63.8,55.4,29.79,ESE,109,11.7,11.7,74,0.00,CLR,SKC,0.00,WeatherDisplay:10.37,2013-06-04 06:52:00,
2013-06-04 01:57:00,63.7,55.3,29.80,ESE,112,11.7,11.7,74,0.00,CLR,SKC,0.00,WeatherDisplay:10.37,2013-06-04 06:57:00,
2013-06-04 02:02:00,63.8,55.4,29.80,ESE,122,18.4,18.4,74,0.00,CLR,SKC,0.00,WeatherDisplay:10.37,2013-06-04 07:02:00,
2013-06-04 02:07:00,63.7,55.3,29.80,ESE,119,13.8,13.8,74,0.00,CLR,SKC,0.00,WeatherDisplay:10.37,2013-06-04 07:07:00,
2013-06-04 02:12:00,63.6,55.2,29.80,ESE,103,12.7,12.7,74,0.00,CLR,SKC,0.00,WeatherDisplay:10.37,2013-06-04 07:12:00,
2013-06-04 02:17:00,63.6,55.5,29.80,ESE,112,9.2,9.2,75,0.00,CLR,SKC,0.00,WeatherDisplay:10.37,2013-06-04 07:17:00,
2013-06-04 02:22:00,63.4,55.3,29.80,ESE,108,10.4,10.4,75,0.00,CLR,SKC,0.00,WeatherDisplay:10.37,2013-06-04 07:22:00,
2013-06-04 02:27:00,63.2,55.5,29.80,ESE,114,9.2,9.2,76,0.00,CLR,SKC,0.00,WeatherDisplay:10.37,2013-06-04 07:27:00,
2013-06-04 02:32:00,63.1,55.4,29.81,ESE,108,6.9,6.9,76,0.00,CLR,SKC,0.00,WeatherDisplay:10.37,2013-06-04 07:32:00,
2013-06-04 02:37:00,63.0,55.3,29.81,ESE,117,9.2,9.2,76,0.00,CLR,SKC,0.00,WeatherDisplay:10.37,2013-06-04 07:37:00,
2013-06-04 02:42:00,62.9,55.6,29.81,ESE,120,6.9,6.9,77,0.00,CLR,SKC,0.00,WeatherDisplay:10.37,2013-06-04 07:42:00,
2013-06-04 02:47:00,62.8,55.5,29.82,ESE,120,6.9,6.9,77,0.00,CLR,SKC,0.00,WeatherDisplay:10.37,2013-06-04 07:47:00,
2013-06-04 02:52:00,62.7,55.4,29.82,East,89,5.8,5.8,77,0.00,CLR,SKC,0.00,WeatherDisplay:10.37,2013-06-04 07:52:00,
2013-06-04 02:57:00,62.7,55.4,29.83,East,88,5.8,5.8,77,0.00,CLR,SKC,0.00,WeatherDisplay:10.37,2013-06-04 07:57:00,
2013-06-04 03:02:00,62.8,55.5,29.83,East,91,3.5,3.5,77,0.00,CLR,SKC,0.00,WeatherDisplay:10.37,2013-06-04 08:02:00,
2013-06-04 03:07:00,62.7,55.7,29.83,East,94,3.5,3.5,78,0.00,CLR,SKC,0.00,WeatherDisplay:10.37,2013-06-04 08:07:00,
2013-06-04 03:12:00,62.7,55.4,29.83,East,100,5.8,5.8,77,0.00,CLR,SKC,0.00,WeatherDisplay:10.37,2013-06-04 08:12:00,
2013-06-04 03:17:00,62.7,55.4,29.83,East,99,6.9,6.9,77,0.00,CLR,SKC,0.00,WeatherDisplay:10.37,2013-06-04 08:17:00,
2013-06-04 03:22:00,62.6,55.6,29.82,East,94,7.4,7.4,78,0.00,CLR,SKC,0.00,WeatherDisplay:10.37,2013-06-04 08:22:00,
2013-06-04 03:27:00,62.5,55.5,29.82,ESE,113,6.9,6.9,78,0.00,CLR,SKC,0.00,WeatherDisplay:10.37,2013-06-04 08:27:00,
2013-06-04 03:32:00,62.2,55.6,29.82,ESE,103,6.9,6.9,79,0.00,CLR,SKC,0.00,WeatherDisplay:10.37,2013-06-04 08:32:00,
2013-06-04 03:37:00,62.0,55.4,29.81,East,91,8.1,8.1,79,0.00,CLR,SKC,0.00,WeatherDisplay:10.37,2013-06-04 08:37:00,
2013-06-04 03:42:00,61.8,55.2,29.81,East,94,9.5,9.5,79,0.00,CLR,SKC,0.00,WeatherDisplay:10.37,2013-06-04 08:42:00,
2013-06-04 03:48:00,61.7,55.1,29.80,ESE,109,10.6,10.6,79,0.00,CLR,SKC,0.00,WeatherDisplay:10.37,2013-06-04 08:48:00,
2013-06-04 03:53:00,61.6,55.0,29.80,East,91,7.4,7.4,79,0.00,CLR,SKC,0.00,WeatherDisplay:10.37,2013-06-04 08:53:00,
2013-06-04 03:58:00,61.5,55.3,29.80,East,100,6.9,6.9,80,0.00,CLR,SKC,0.00,WeatherDisplay:10.37,2013-06-04 08:58:00,
2013-06-04 04:03:00,61.4,55.2,29.80,East,101,7.4,7.4,80,0.00,CLR,SKC,0.00,WeatherDisplay:10.37,2013-06-04 09:03:00,
2013-06-04 04:08:00,61.4,55.2,29.81,East,88,3.5,3.5,80,0.00,CLR,SKC,0.00,WeatherDisplay:10.37,2013-06-04 09:08:00,
2013-06-04 04:13:00,61.3,55.1,29.81,ENE,72,1.2,0.0,80,0.00,CLR,SKC,0.00,WeatherDisplay:10.37,2013-06-04 09:13:00,
2013-06-04 04:18:00,61.3,55.1,29.82,East,80,2.3,2.3,80,0.00,CLR,SKC,0.00,WeatherDisplay:10.37,2013-06-04 09:18:00,
2013-06-04 04:23:00,61.3,55.1,29.82,ENE,76,2.3,2.3,80,0.00,CLR,SKC,0.00,WeatherDisplay:10.37,2013-06-04 09:23:00,
2013-06-04 04:28:00,61.3,55.4,29.82,East,96,4.2,4.2,81,0.00,CLR,SKC,0.00,WeatherDisplay:10.37,2013-06-04 09:28:00,
2013-06-04 04:33:00,61.3,55.4,29.81,East,97,6.9,6.9,81,0.00,CLR,SKC,0.00,WeatherDisplay:10.37,2013-06-04 09:33:00,
2013-06-04 04:38:00,61.2,55.3,29.81,ESE,105,6.4,6.4,81,0.00,CLR,SKC,0.00,WeatherDisplay:10.37,2013-06-04 09:38:00,
2013-06-04 04:43:00,61.2,55.3,29.82,East,98,5.8,5.8,81,0.00,CLR,SKC,0.00,WeatherDisplay:10.37,2013-06-04 09:43:00,
2013-06-04 04:48:00,61.3,55.4,29.81,ESE,107,7.4,7.4,81,0.00,CLR,SKC,0.00,WeatherDisplay:10.37,2013-06-04 09:48:00,
2013-06-04 04:53:00,61.3,55.1,29.81,ESE,102,9.2,9.2,80,0.00,CLR,SKC,0.00,WeatherDisplay:10.37,2013-06-04 09:53:00,
2013-06-04 04:58:00,61.3,55.1,29.80,ESE,115,10.6,10.6,80,0.00,CLR,SKC,0.00,WeatherDisplay:10.37,2013-06-04 09:58:00,
2013-06-04 05:03:00,61.3,55.1,29.80,ESE,121,11.7,11.7,80,0.00,CLR,SKC,0.00,WeatherDisplay:10.37,2013-06-04 10:03:00,
2013-06-04 05:08:00,61.3,55.1,29.80,East,100,10.4,10.4,80,0.00,CLR,SKC,0.00,WeatherDisplay:10.37,2013-06-04 10:08:00,
2013-06-04 05:13:00,61.4,55.2,29.81,ESE,114,7.4,7.4,80,0.00,CLR,SKC,0.00,WeatherDisplay:10.37,2013-06-04 10:13:00,
2013-06-04 05:18:00,61.3,55.4,29.81,East,95,7.4,7.4,81,0.04,RA,SKC,0.04,WeatherDisplay:10.37,2013-06-04 10:18:00,
2013-06-04 05:23:00,61.1,55.6,29.81,ESE,106,5.8,5.8,82,0.05,RA,SKC,0.05,WeatherDisplay:10.37,2013-06-04 10:23:00,
2013-06-04 05:28:00,60.9,55.7,29.82,East,98,4.6,4.6,83,0.07,RA,SKC,0.07,WeatherDisplay:10.37,2013-06-04 10:28:00,
2013-06-04 05:33:00,60.7,55.8,29.82,East,99,4.6,4.6,84,0.07,RA,SKC,0.07,WeatherDisplay:10.37,2013-06-04 10:33:00,
2013-06-04 05:38:00,60.6,55.7,29.82,East,96,6.9,6.9,84,0.07,CLR,SKC,0.07,WeatherDisplay:10.37,2013-06-04 10:38:00,
2013-06-04 05:43:00,60.5,56.0,29.81,East,97,6.9,6.9,85,0.07,CLR,SKC,0.07,WeatherDisplay:10.37,2013-06-04 10:43:00,
2013-06-04 05:48:00,60.3,56.1,29.81,ESE,102,8.5,8.5,86,0.07,CLR,SKC,0.07,WeatherDisplay:10.37,2013-06-04 10:48:00,
2013-06-04 05:53:00,60.2,56.0,29.80,ESE,108,8.1,8.1,86,0.07,CLR,SKC,0.07,WeatherDisplay:10.37,2013-06-04 10:53:00,
2013-06-04 05:58:00,60.2,56.0,29.80,ESE,109,11.7,11.7,86,0.07,CLR,SKC,0.07,WeatherDisplay:10.37,2013-06-04 10:58:00,
2013-06-04 06:03:00,60.3,56.1,29.79,ESE,114,8.5,8.5,86,0.07,CLR,SKC,0.07,WeatherDisplay:10.37,2013-06-04 11:03:00,
2013-06-04 06:08:00,60.3,56.1,29.79,East,98,12.7,12.7,86,0.07,CLR,SKC,0.07,WeatherDisplay:10.37,2013-06-04 11:08:00,
2013-06-04 06:13:00,60.5,56.0,29.79,ESE,105,10.4,10.4,85,0.07,CLR,SKC,0.07,WeatherDisplay:10.37,2013-06-04 11:13:00,
2013-06-04 06:18:00,60.6,56.1,29.80,SE,141,8.5,8.5,85,0.02,CLR,SKC,0.07,WeatherDisplay:10.37,2013-06-04 11:18:00,
2013-06-04 06:23:00,60.6,56.1,29.80,ESE,107,8.5,8.5,85,0.01,CLR,SKC,0.07,WeatherDisplay:10.37,2013-06-04 11:23:00,
2013-06-04 06:28:00,60.6,56.1,29.80,ESE,113,8.5,8.5,85,0.00,CLR,SKC,0.07,WeatherDisplay:10.37,2013-06-04 11:28:00,
2013-06-04 06:33:00,60.7,56.2,29.81,ESE,118,8.5,8.5,85,0.00,CLR,SKC,0.07,WeatherDisplay:10.37,2013-06-04 11:33:00,
2013-06-04 06:38:00,60.7,56.2,29.81,SE,139,9.2,9.2,85,0.00,CLR,SKC,0.07,WeatherDisplay:10.37,2013-06-04 11:38:00,
2013-06-04 06:43:00,60.7,56.2,29.82,SE,136,5.8,5.8,85,0.00,CLR,SKC,0.07,WeatherDisplay:10.37,2013-06-04 11:43:00,
2013-06-04 06:48:00,60.6,56.4,29.82,ESE,117,6.9,6.9,86,0.00,CLR,SKC,0.07,WeatherDisplay:10.37,2013-06-04 11:48:00,
2013-06-04 06:53:00,60.7,56.2,29.84,WSW,254,1.2,1.2,85,0.00,CLR,SKC,0.07,WeatherDisplay:10.37,2013-06-04 11:53:00,
2013-06-04 06:58:00,60.7,56.8,29.85,WNW,292,2.3,2.3,87,0.00,CLR,SKC,0.07,WeatherDisplay:10.37,2013-06-04 11:58:00,
2013-06-04 07:03:00,60.7,56.8,29.86,WNW,292,0.0,0.0,87,0.00,CLR,SKC,0.07,WeatherDisplay:10.37,2013-06-04 12:03:00,
2013-06-04 07:08:00,60.7,56.8,29.85,NW,305,0.0,0.0,87,0.00,CLR,SKC,0.07,WeatherDisplay:10.37,2013-06-04 12:08:00,
2013-06-04 07:13:00,60.9,56.7,29.86,ENE,75,1.2,1.2,86,0.00,CLR,SKC,0.07,WeatherDisplay:10.37,2013-06-04 12:13:00,
2013-06-04 07:18:00,61.0,57.1,29.86,ENE,68,1.2,1.2,87,0.00,CLR,SKC,0.07,WeatherDisplay:10.37,2013-06-04 12:18:00,
2013-06-04 07:23:00,61.0,57.1,29.86,East,87,2.3,2.3,87,0.00,CLR,SKC,0.07,WeatherDisplay:10.37,2013-06-04 12:23:00,
2013-06-04 07:29:00,61.1,57.2,29.85,ENE,67,3.5,3.5,87,0.00,CLR,SKC,0.07,WeatherDisplay:10.37,2013-06-04 12:29:00,
2013-06-04 07:34:00,61.1,57.2,29.85,East,98,4.2,4.2,87,0.00,CLR,SKC,0.07,WeatherDisplay:10.37,2013-06-04 12:34:00,
2013-06-04 07:39:00,61.2,57.3,29.84,ESE,103,4.6,4.6,87,0.00,CLR,SKC,0.07,WeatherDisplay:10.37,2013-06-04 12:39:00,
2013-06-04 07:44:00,61.5,57.6,29.84,ESE,107,7.4,7.4,87,0.00,CLR,SKC,0.07,WeatherDisplay:10.37,2013-06-04 12:44:00,
2013-06-04 07:49:00,61.7,57.8,29.84,East,101,5.8,5.8,87,0.00,CLR,SKC,0.07,WeatherDisplay:10.37,2013-06-04 12:49:00,
2013-06-04 07:54:00,62.0,57.8,29.84,ESE,105,6.9,6.9,86,0.00,CLR,SKC,0.07,WeatherDisplay:10.37,2013-06-04 12:54:00,
2013-06-04 07:59:00,62.3,58.1,29.84,East,97,7.4,7.4,86,0.00,CLR,SKC,0.07,WeatherDisplay:10.37,2013-06-04 12:59:00,
2013-06-04 08:04:00,62.6,58.4,29.84,East,96,7.4,7.4,86,0.00,CLR,SKC,0.07,WeatherDisplay:10.37,2013-06-04 13:04:00,
2013-06-04 08:09:00,62.8,58.2,29.83,East,82,8.5,8.5,85,0.00,CLR,SKC,0.07,WeatherDisplay:10.37,2013-06-04 13:09:00,
2013-06-04 08:14:00,62.8,57.9,29.83,ESE,112,8.5,8.5,84,0.00,CLR,SKC,0.07,WeatherDisplay:10.37,2013-06-04 13:14:00,
2013-06-04 08:19:00,62.8,57.9,29.83,East,94,9.5,9.5,84,0.00,CLR,SKC,0.07,WeatherDisplay:10.37,2013-06-04 13:19:00,
2013-06-04 08:24:00,62.8,57.6,29.82,ESE,102,12.7,12.7,83,0.00,CLR,SKC,0.07,WeatherDisplay:10.37,2013-06-04 13:24:00,
2013-06-04 08:29:00,62.8,57.9,29.82,East,101,9.5,9.5,84,0.00,CLR,SKC,0.07,WeatherDisplay:10.37,2013-06-04 13:29:00,
2013-06-04 08:34:00,62.7,57.8,29.82,East,83,11.7,11.7,84,0.00,CLR,SKC,0.07,WeatherDisplay:10.37,2013-06-04 13:34:00,
2013-06-04 08:39:00,62.7,57.8,29.82,ESE,102,7.4,7.4,84,0.00,CLR,SKC,0.07,WeatherDisplay:10.37,2013-06-04 13:39:00,
2013-06-04 08:44:00,62.8,57.9,29.84,East,96,5.3,5.3,84,0.00,CLR,SKC,0.07,WeatherDisplay:10.37,2013-06-04 13:44:00,
2013-06-04 08:49:00,62.9,57.7,29.83,East,96,10.6,10.6,83,0.00,CLR,SKC,0.07,WeatherDisplay:10.37,2013-06-04 13:49:00,
2013-06-04 08:54:00,63.0,58.1,29.80,East,100,13.8,13.8,84,0.00,CLR,SKC,0.07,WeatherDisplay:10.37,2013-06-04 13:54:00,
2013-06-04 08:59:00,63.2,57.9,29.80,ESE,112,15.0,15.0,83,0.00,CLR,SKC,0.07,WeatherDisplay:10.37,2013-06-04 13:59:00,
2013-06-04 09:04:00,63.4,58.1,29.80,ESE,120,16.1,16.1,83,0.00,CLR,SKC,0.07,WeatherDisplay:10.37,2013-06-04 14:04:00,
2013-06-04 09:09:00,63.7,58.4,29.80,ESE,117,11.7,11.7,83,0.00,CLR,SKC,0.07,WeatherDisplay:10.37,2013-06-04 14:09:00,
2013-06-04 09:14:00,63.8,58.2,29.80,East,91,17.0,17.0,82,0.00,CLR,SKC,0.07,WeatherDisplay:10.37,2013-06-04 14:14:00,
2013-06-04 09:19:00,63.9,58.3,29.80,ESE,110,17.3,17.3,82,0.00,CLR,SKC,0.07,WeatherDisplay:10.37,2013-06-04 14:19:00,
2013-06-04 09:24:00,64.1,58.1,29.79,East,94,18.4,18.4,81,0.00,CLR,SKC,0.07,WeatherDisplay:10.37,2013-06-04 14:24:00,
2013-06-04 09:29:00,64.2,58.6,29.80,ESE,112,13.8,13.8,82,0.00,CLR,SKC,0.07,WeatherDisplay:10.37,2013-06-04 14:29:00,
2013-06-04 09:34:00,64.4,58.8,29.80,ESE,120,12.7,12.7,82,0.00,CLR,SKC,0.07,WeatherDisplay:10.37,2013-06-04 14:34:00,
2013-06-04 09:39:00,64.5,58.5,29.80,East,100,19.6,19.6,81,0.00,CLR,SKC,0.07,WeatherDisplay:10.37,2013-06-04 14:39:00,
2013-06-04 09:44:00,64.7,58.7,29.83,ESE,110,18.4,18.4,81,0.00,CLR,SKC,0.07,WeatherDisplay:10.37,2013-06-04 14:44:00,
2013-06-04 09:49:00,64.9,58.9,29.85,SE,137,8.1,8.1,81,0.00,CLR,SKC,0.07,WeatherDisplay:10.37,2013-06-04 14:49:00,
2013-06-04 09:54:00,65.0,59.4,29.85,ESE,120,10.4,10.4,82,0.00,CLR,SKC,0.07,WeatherDisplay:10.37,2013-06-04 14:54:00,
2013-06-04 09:59:00,65.3,59.0,29.84,SE,131,11.5,11.5,80,0.00,CLR,SKC,0.07,WeatherDisplay:10.37,2013-06-04 14:59:00,
2013-06-04 10:04:00,65.5,59.5,29.84,ESE,108,10.6,10.6,81,0.00,CLR,SKC,0.07,WeatherDisplay:10.37,2013-06-04 15:04:00,
2013-06-04 10:09:00,65.7,59.4,29.83,ESE,113,15.9,15.9,80,0.00,CLR,SKC,0.07,WeatherDisplay:10.37,2013-06-04 15:09:00,
2013-06-04 10:14:00,65.8,59.8,29.83,ESE,109,13.8,13.8,81,0.00,CLR,SKC,0.07,WeatherDisplay:10.37,2013-06-04 15:14:00,
2013-06-04 10:19:00,66.0,59.7,29.83,SSE,154,11.5,11.5,80,0.00,CLR,SKC,0.07,WeatherDisplay:10.37,2013-06-04 15:19:00,
2013-06-04 10:24:00,66.2,59.5,29.84,ESE,117,12.7,12.7,79,0.00,CLR,SKC,0.07,WeatherDisplay:10.37,2013-06-04 15:24:00,
2013-06-04 10:29:00,66.4,59.7,29.83,East,101,12.7,12.7,79,0.00,CLR,SKC,0.07,WeatherDisplay:10.37,2013-06-04 15:29:00,
2013-06-04 10:34:00,66.6,60.2,29.83,ESE,122,11.7,11.7,80,0.00,CLR,SKC,0.07,WeatherDisplay:10.37,2013-06-04 15:34:00,
2013-06-04 10:39:00,66.9,60.5,29.83,ESE,113,12.7,12.7,80,0.00,CLR,SKC,0.07,WeatherDisplay:10.37,2013-06-04 15:39:00,
2013-06-04 10:44:00,67.2,60.5,29.83,SE,145,11.7,11.7,79,0.00,CLR,SKC,0.07,WeatherDisplay:10.37,2013-06-04 15:44:00,
2013-06-04 10:49:00,67.3,60.6,29.83,ESE,119,11.5,11.5,79,0.00,CLR,SKC,0.07,WeatherDisplay:10.37,2013-06-04 15:49:00,
2013-06-04 10:54:00,67.7,61.0,29.83,SE,124,11.7,11.7,79,0.00,CLR,SKC,0.07,WeatherDisplay:10.37,2013-06-04 15:54:00,
2013-06-04 10:59:00,68.1,61.0,29.83,ESE,120,8.5,8.5,78,0.00,CLR,SKC,0.07,WeatherDisplay:10.37,2013-06-04 15:59:00,
2013-06-04 11:04:00,68.4,61.6,29.83,ESE,118,6.9,6.9,79,0.00,CLR,SKC,0.07,WeatherDisplay:10.37,2013-06-04 16:04:00,
2013-06-04 11:09:00,68.7,61.2,29.84,East,96,8.1,8.1,77,0.00,CLR,SKC,0.07,WeatherDisplay:10.37,2013-06-04 16:09:00,
2013-06-04 11:14:00,68.8,60.9,29.85,SE,142,3.5,3.5,76,0.00,CLR,SKC,0.07,WeatherDisplay:10.37,2013-06-04 16:14:00,
2013-06-04 11:19:00,69.2,62.0,29.85,SSE,150,4.6,4.6,78,0.00,CLR,SKC,0.07,WeatherDisplay:10.37,2013-06-04 16:19:00,
2013-06-04 11:24:00,69.9,62.0,29.85,SSE,152,6.9,6.9,76,0.00,CLR,SKC,0.07,WeatherDisplay:10.37,2013-06-04 16:24:00,
2013-06-04 11:29:00,70.5,62.6,29.84,SE,145,5.8,5.8,76,0.00,CLR,SKC,0.07,WeatherDisplay:10.37,2013-06-04 16:29:00,
2013-06-04 11:34:00,70.5,61.8,29.85,South,173,10.6,10.6,74,0.00,CLR,SKC,0.07,WeatherDisplay:10.37,2013-06-04 16:34:00,
2013-06-04 11:39:00,70.7,62.0,29.85,South,170,5.8,5.8,74,0.00,CLR,SKC,0.07,WeatherDisplay:10.37,2013-06-04 16:39:00,
2013-06-04 11:44:00,70.9,61.8,29.85,SSE,156,4.6,4.6,73,0.00,CLR,SKC,0.07,WeatherDisplay:10.37,2013-06-04 16:44:00,
2013-06-04 11:49:00,71.1,62.8,29.85,SE,135,5.8,5.8,75,0.00,CLR,SKC,0.07,WeatherDisplay:10.37,2013-06-04 16:49:00,
2013-06-04 11:54:00,71.2,62.9,29.85,SSE,158,6.9,6.9,75,0.00,CLR,SKC,0.07,WeatherDisplay:10.37,2013-06-04 16:54:00,
2013-06-04 11:59:00,71.3,62.6,29.85,SSE,150,4.6,4.6,74,0.00,CLR,SKC,0.07,WeatherDisplay:10.37,2013-06-04 16:59:00,
2013-06-04 12:04:00,71.4,62.3,29.85,SE,146,3.2,3.2,73,0.00,CLR,SKC,0.07,WeatherDisplay:10.37,2013-06-04 17:04:00,
2013-06-04 12:09:00,71.5,62.4,29.85,ESE,122,4.2,4.2,73,0.00,CLR,SKC,0.07,WeatherDisplay:10.37,2013-06-04 17:09:00,
2013-06-04 12:14:00,71.6,62.5,29.85,East,99,6.9,6.9,73,0.00,CLR,SKC,0.07,WeatherDisplay:10.37,2013-06-04 17:14:00,
2013-06-04 12:19:00,71.8,62.7,29.85,SSW,192,4.6,4.6,73,0.00,CLR,SKC,0.07,WeatherDisplay:10.37,2013-06-04 17:19:00,
2013-06-04 12:24:00,71.8,62.7,29.85,ESE,117,6.4,6.4,73,0.00,CLR,SKC,0.07,WeatherDisplay:10.37,2013-06-04 17:24:00,
2013-06-04 12:29:00,71.6,62.5,29.85,SSE,150,6.9,6.9,73,0.00,CLR,SKC,0.07,WeatherDisplay:10.37,2013-06-04 17:29:00,
2013-06-04 12:34:00,71.6,62.1,29.85,SSE,148,3.5,3.5,72,0.00,CLR,SKC,0.07,WeatherDisplay:10.37,2013-06-04 17:34:00,
2013-06-04 12:39:00,71.7,62.2,29.85,SE,143,3.5,3.5,72,0.00,CLR,SKC,0.07,WeatherDisplay:10.37,2013-06-04 17:39:00,
2013-06-04 12:44:00,72.0,62.9,29.85,SSE,149,4.2,4.2,73,0.00,CLR,SKC,0.07,WeatherDisplay:10.37,2013-06-04 17:44:00,
2013-06-04 12:49:00,71.9,62.0,29.85,SE,129,4.6,4.6,71,0.00,CLR,SKC,0.07,WeatherDisplay:10.37,2013-06-04 17:49:00,
2013-06-04 12:54:00,72.0,62.1,29.85,SSE,161,6.9,6.9,71,0.00,CLR,SKC,0.07,WeatherDisplay:10.37,2013-06-04 17:54:00,
2013-06-04 12:59:00,72.2,63.1,29.85,SE,142,6.9,6.9,73,0.00,CLR,SKC,0.07,WeatherDisplay:10.37,2013-06-04 17:59:00,
2013-06-04 13:04:00,72.7,62.8,29.84,South,180,4.6,4.6,71,0.00,CLR,SKC,0.07,WeatherDisplay:10.37,2013-06-04 18:04:00,
2013-06-04 13:09:00,72.7,62.8,29.84,East,91,8.1,8.1,71,0.00,CLR,SKC,0.07,WeatherDisplay:10.37,2013-06-04 18:09:00,
2013-06-04 13:14:00,72.7,63.9,29.84,SE,139,5.8,5.8,74,0.00,CLR,SKC,0.07,WeatherDisplay:10.37,2013-06-04 18:14:00,
2013-06-04 13:20:00,73.3,62.9,29.84,SE,126,6.9,6.9,70,0.00,CLR,SKC,0.07,WeatherDisplay:10.37,2013-06-04 18:20:00,
2013-06-04 13:25:00,73.4,63.4,29.84,SSE,168,5.8,5.8,71,0.00,CLR,SKC,0.07,WeatherDisplay:10.37,2013-06-04 18:25:00,
2013-06-04 13:30:00,73.5,63.1,29.85,South,181,5.0,7.0,70,0.00,CLR,SKC,0.07,WeatherDisplay:10.37,2013-06-04 18:30:00,
2013-06-04 13:35:00,73.4,63.4,29.84,SSW,193,4.6,4.6,71,0.00,CLR,SKC,0.07,WeatherDisplay:10.37,2013-06-04 18:35:00,
2013-06-04 13:40:00,73.2,62.8,29.84,SE,132,4.2,4.2,70,0.00,CLR,SKC,0.07,WeatherDisplay:10.37,2013-06-04 18:40:00,
2013-06-04 13:45:00,73.0,63.4,29.84,SE,141,5.8,5.8,72,0.00,CLR,SKC,0.07,WeatherDisplay:10.37,2013-06-04 18:45:00,
2013-06-04 13:50:00,73.1,62.7,29.84,SSE,152,4.6,4.6,70,0.00,CLR,SKC,0.07,WeatherDisplay:10.37,2013-06-04 18:50:00,
2013-06-04 13:55:00,73.3,63.3,29.84,ESE,102,4.6,4.6,71,0.00,CLR,SKC,0.07,WeatherDisplay:10.37,2013-06-04 18:55:00,
2013-06-04 14:00:00,73.1,63.5,29.84,SSE,158,5.8,5.8,72,0.00,CLR,SKC,0.07,WeatherDisplay:10.37,2013-06-04 19:00:00,
2013-06-04 14:05:00,73.2,63.6,29.84,SSE,160,0.0,0.0,72,0.00,CLR,SKC,0.07,WeatherDisplay:10.37,2013-06-04 19:05:00,
2013-06-04 14:10:00,73.6,63.6,29.84,SSE,160,3.5,3.5,71,0.00,CLR,SKC,0.07,WeatherDisplay:10.37,2013-06-04 19:10:00,
2013-06-04 14:15:00,74.0,63.2,29.83,WSW,238,4.6,4.6,69,0.00,CLR,SKC,0.07,WeatherDisplay:10.37,2013-06-04 19:15:00,
2013-06-04 14:20:00,73.8,63.8,29.83,SSE,157,6.9,6.9,71,0.00,CLR,SKC,0.07,WeatherDisplay:10.37,2013-06-04 19:20:00,
2013-06-04 14:25:00,73.8,63.8,29.83,ESE,116,6.9,6.9,71,0.00,CLR,SKC,0.07,WeatherDisplay:10.37,2013-06-04 19:25:00,
2013-06-04 14:30:00,73.9,64.7,29.83,SSW,198,6.9,6.9,73,0.00,CLR,SKC,0.07,WeatherDisplay:10.37,2013-06-04 19:30:00,
2013-06-04 14:35:00,74.0,64.0,29.83,SSE,147,2.3,2.3,71,0.00,CLR,SKC,0.07,WeatherDisplay:10.37,2013-06-04 19:35:00,
2013-06-04 14:40:00,74.1,64.1,29.83,SSE,168,1.2,0.0,71,0.00,CLR,SKC,0.07,WeatherDisplay:10.37,2013-06-04 19:40:00,
2013-06-04 14:45:00,74.4,64.0,29.83,SE,124,6.9,6.9,70,0.00,CLR,SKC,0.07,WeatherDisplay:10.37,2013-06-04 19:45:00,
2013-06-04 14:50:00,74.2,64.2,29.83,ESE,120,7.4,7.4,71,0.00,CLR,SKC,0.07,WeatherDisplay:10.37,2013-06-04 19:50:00,
2013-06-04 14:55:00,74.1,63.7,29.83,SE,143,5.8,5.8,70,0.00,CLR,SKC,0.07,WeatherDisplay:10.37,2013-06-04 19:55:00,
2013-06-04 15:00:00,74.5,64.5,29.83,East,95,4.2,4.2,71,0.00,CLR,SKC,0.07,WeatherDisplay:10.37,2013-06-04 20:00:00,
2013-06-04 15:05:00,74.4,63.6,29.83,SE,139,4.6,4.6,69,0.00,CLR,SKC,0.07,WeatherDisplay:10.37,2013-06-04 20:05:00,
2013-06-04 15:10:00,74.3,63.5,29.83,East,89,6.9,6.9,69,0.00,CLR,SKC,0.07,WeatherDisplay:10.37,2013-06-04 20:10:00,
2013-06-04 15:15:00,74.1,64.5,29.83,SE,139,6.9,6.9,72,0.00,CLR,SKC,0.07,WeatherDisplay:10.37,2013-06-04 20:15:00,
2013-06-04 15:20:00,74.2,63.8,29.83,SSE,153,2.3,2.3,70,0.00,CLR,SKC,0.07,WeatherDisplay:10.37,2013-06-04 20:20:00,
2013-06-04 15:25:00,74.6,64.6,29.83,ESE,114,5.8,5.8,71,0.00,CLR,SKC,0.07,WeatherDisplay:10.37,2013-06-04 20:25:00,
2013-06-04 15:30:00,75.2,64.3,29.83,East,85,6.9,6.9,69,0.00,CLR,SKC,0.07,WeatherDisplay:10.37,2013-06-04 20:30:00,
2013-06-04 15:35:00,75.3,64.8,29.83,ESE,115,5.8,5.8,70,0.00,CLR,SKC,0.07,WeatherDisplay:10.37,2013-06-04 20:35:00,
2013-06-04 15:40:00,75.1,63.8,29.83,East,98,6.9,6.9,68,0.00,CLR,SKC,0.07,WeatherDisplay:10.37,2013-06-04 20:40:00,
2013-06-04 15:45:00,75.4,64.5,29.83,SE,125,5.8,5.8,69,0.00,CLR,SKC,0.07,WeatherDisplay:10.37,2013-06-04 20:45:00,
2013-06-04 15:50:00,75.6,63.9,29.83,ENE,77,6.9,6.9,67,0.00,CLR,SKC,0.07,WeatherDisplay:10.37,2013-06-04 20:50:00,
2013-06-04 15:55:00,75.5,63.8,29.83,ESE,108,7.4,7.4,67,0.01,RA,SKC,0.08,WeatherDisplay:10.37,2013-06-04 20:55:00,
2013-06-04 16:00:00,75.5,63.8,29.82,East,79,4.6,4.6,67,0.01,RA,SKC,0.08,WeatherDisplay:10.37,2013-06-04 21:00:00,
2013-06-04 16:05:00,75.5,63.3,29.82,ESE,120,5.8,5.8,66,0.01,CLR,SKC,0.08,WeatherDisplay:10.37,2013-06-04 21:05:00,
2013-06-04 16:10:00,75.8,64.1,29.82,SE,143,1.2,0.0,67,0.01,CLR,SKC,0.08,WeatherDisplay:10.37,2013-06-04 21:10:00,
2013-06-04 16:15:00,76.7,64.0,29.82,South,179,7.4,7.4,65,0.01,CLR,SKC,0.08,WeatherDisplay:10.37,2013-06-04 21:15:00,
2013-06-04 16:20:00,77.5,64.4,29.82,ESE,113,5.8,5.8,64,0.01,CLR,SKC,0.08,WeatherDisplay:10.37,2013-06-04 21:20:00,
2013-06-04 16:25:00,77.5,65.7,29.82,SSE,165,8.5,8.5,67,0.01,CLR,SKC,0.08,WeatherDisplay:10.37,2013-06-04 21:25:00,
2013-06-04 16:30:00,77.6,64.5,29.82,SSE,159,10.4,10.4,64,0.01,CLR,SKC,0.08,WeatherDisplay:10.37,2013-06-04 21:30:00,
2013-06-04 16:35:00,77.5,65.2,29.82,ENE,76,4.6,4.6,66,0.01,CLR,SKC,0.08,WeatherDisplay:10.37,2013-06-04 21:35:00,
2013-06-04 16:40:00,77.9,64.3,29.82,SSE,147,6.9,6.9,63,0.01,CLR,SKC,0.08,WeatherDisplay:10.37,2013-06-04 21:40:00,
2013-06-04 16:45:00,78.0,64.4,29.82,South,183,4.6,4.6,63,0.01,CLR,SKC,0.08,WeatherDisplay:10.37,2013-06-04 21:45:00,
2013-06-04 16:50:00,78.1,64.5,29.82,SE,140,4.6,4.6,63,0.01,CLR,SKC,0.08,WeatherDisplay:10.37,2013-06-04 21:50:00,
2013-06-04 16:55:00,78.3,63.7,29.82,SE,146,7.4,7.4,61,0.00,CLR,SKC,0.08,WeatherDisplay:10.37,2013-06-04 21:55:00,
2013-06-04 17:00:00,77.9,63.8,29.82,SSW,195,3.5,3.5,62,0.00,CLR,SKC,0.08,WeatherDisplay:10.37,2013-06-04 22:00:00,
2013-06-04 17:05:00,77.9,64.7,29.82,SE,136,6.9,6.9,64,0.00,CLR,SKC,0.08,WeatherDisplay:10.37,2013-06-04 22:05:00,
2013-06-04 17:10:00,77.5,64.4,29.82,SE,143,8.5,8.5,64,0.00,CLR,SKC,0.08,WeatherDisplay:10.37,2013-06-04 22:10:00,
2013-06-04 17:15:00,77.0,64.8,29.82,SSE,148,5.8,5.8,66,0.00,CLR,SKC,0.08,WeatherDisplay:10.37,2013-06-04 22:15:00,
2013-06-04 17:20:00,77.1,64.9,29.82,SE,128,6.4,6.4,66,0.00,CLR,SKC,0.08,WeatherDisplay:10.37,2013-06-04 22:20:00,
2013-06-04 17:25:00,77.1,64.4,29.82,SE,143,5.8,5.8,65,0.00,CLR,SKC,0.08,WeatherDisplay:10.37,2013-06-04 22:25:00,
2013-06-04 17:30:00,76.8,64.1,29.82,ESE,105,6.9,6.9,65,0.00,CLR,SKC,0.08,WeatherDisplay:10.37,2013-06-04 22:30:00,
2013-06-04 17:35:00,76.8,64.6,29.82,ESE,117,7.4,7.4,66,0.00,CLR,SKC,0.08,WeatherDisplay:10.37,2013-06-04 22:35:00,
2013-06-04 17:40:00,76.7,64.0,29.82,SE,125,8.5,8.5,65,0.00,CLR,SKC,0.08,WeatherDisplay:10.37,2013-06-04 22:40:00,
2013-06-04 17:45:00,76.6,64.4,29.82,SE,124,8.5,8.5,66,0.00,CLR,SKC,0.08,WeatherDisplay:10.37,2013-06-04 22:45:00,
2013-06-04 17:50:00,76.7,64.5,29.82,ESE,123,8.1,8.1,66,0.00,CLR,SKC,0.08,WeatherDisplay:10.37,2013-06-04 22:50:00,
2013-06-04 17:55:00,76.5,64.3,29.82,East,101,8.5,8.5,66,0.00,CLR,SKC,0.08,WeatherDisplay:10.37,2013-06-04 22:55:00,
2013-06-04 18:00:00,76.5,64.7,29.82,SE,146,5.8,5.8,67,0.00,CLR,SKC,0.08,WeatherDisplay:10.37,2013-06-04 23:00:00,
2013-06-04 18:05:00,76.3,64.5,29.82,ESE,122,6.4,6.4,67,0.00,CLR,SKC,0.08,WeatherDisplay:10.37,2013-06-04 23:05:00,
2013-06-04 18:10:00,76.3,65.0,29.82,SE,136,8.5,8.5,68,0.00,CLR,SKC,0.08,WeatherDisplay:10.37,2013-06-04 23:10:00,
2013-06-04 18:15:00,76.2,64.9,29.82,SE,128,5.8,5.8,68,0.00,CLR,SKC,0.08,WeatherDisplay:10.37,2013-06-04 23:15:00,
2013-06-04 18:20:00,76.0,65.1,29.82,SE,139,9.5,9.5,69,0.00,CLR,SKC,0.08,WeatherDisplay:10.37,2013-06-04 23:20:00,
2013-06-04 18:25:00,75.7,65.2,29.82,SE,133,9.2,9.2,70,0.01,RA,SKC,0.09,WeatherDisplay:10.37,2013-06-04 23:25:00,
2013-06-04 18:30:00,75.5,64.6,29.82,ESE,105,8.5,8.5,69,0.01,RA,SKC,0.09,WeatherDisplay:10.37,2013-06-04 23:30:00,
2013-06-04 18:35:00,75.6,64.7,29.82,SE,125,6.9,6.9,69,0.01,CLR,SKC,0.09,WeatherDisplay:10.37,2013-06-04 23:35:00,
2013-06-04 18:41:00,75.8,64.9,29.82,ESE,113,5.8,5.8,69,0.01,CLR,SKC,0.09,WeatherDisplay:10.37,2013-06-04 23:41:00,
2013-06-04 18:46:00,75.8,64.9,29.82,ESE,106,6.9,6.9,69,0.01,CLR,SKC,0.09,WeatherDisplay:10.37,2013-06-04 23:46:00,
2013-06-04 18:51:00,75.8,64.9,29.82,ESE,105,5.8,5.8,69,0.01,CLR,SKC,0.09,WeatherDisplay:10.37,2013-06-04 23:51:00,
2013-06-04 18:56:00,75.8,64.9,29.82,ESE,113,9.2,9.2,69,0.01,CLR,SKC,0.09,WeatherDisplay:10.37,2013-06-04 23:56:00,
2013-06-04 19:01:00,75.5,64.6,29.82,ESE,116,10.6,10.6,69,0.01,CLR,SKC,0.09,WeatherDisplay:10.37,2013-06-05 00:01:00,
2013-06-04 19:06:00,75.5,65.0,29.82,East,90,7.4,7.4,70,0.01,CLR,SKC,0.09,WeatherDisplay:10.37,2013-06-05 00:06:00,
2013-06-04 19:11:00,75.5,64.6,29.83,ESE,110,7.4,7.4,69,0.01,CLR,SKC,0.09,WeatherDisplay:10.37,2013-06-05 00:11:00,
2013-06-04 19:16:00,75.5,64.6,29.82,East,100,8.5,8.5,69,0.01,CLR,SKC,0.09,WeatherDisplay:10.37,2013-06-05 00:16:00,
2013-06-04 19:21:00,75.6,64.7,29.83,East,94,7.4,7.4,69,0.01,CLR,SKC,0.09,WeatherDisplay:10.37,2013-06-05 00:21:00,
2013-06-04 19:26:00,75.7,64.8,29.83,ESE,116,6.9,6.9,69,0.00,CLR,SKC,0.09,WeatherDisplay:10.37,2013-06-05 00:26:00,
2013-06-04 19:31:00,75.7,65.2,29.83,ESE,110,6.4,6.4,70,0.00,CLR,SKC,0.09,WeatherDisplay:10.37,2013-06-05 00:31:00,
2013-06-04 19:36:00,75.5,64.6,29.83,ESE,108,9.5,9.5,69,0.00,CLR,SKC,0.09,WeatherDisplay:10.37,2013-06-05 00:36:00,
2013-06-04 19:41:00,75.2,64.7,29.83,ESE,112,9.5,9.5,70,0.00,CLR,SKC,0.09,WeatherDisplay:10.37,2013-06-05 00:41:00,
2013-06-04 19:46:00,75.0,65.0,29.83,ESE,108,9.5,9.5,71,0.00,CLR,SKC,0.09,WeatherDisplay:10.37,2013-06-05 00:46:00,
2013-06-04 19:51:00,74.8,65.2,29.83,ESE,107,6.9,6.9,72,0.00,CLR,SKC,0.09,WeatherDisplay:10.37,2013-06-05 00:51:00,
2013-06-04 19:56:00,74.6,65.0,29.84,ESE,115,9.5,9.5,72,0.00,CLR,SKC,0.09,WeatherDisplay:10.37,2013-06-05 00:56:00,
2013-06-04 20:01:00,74.5,64.9,29.84,ESE,115,8.5,8.5,72,0.00,CLR,SKC,0.09,WeatherDisplay:10.37,2013-06-05 01:01:00,
2013-06-04 20:07:00,74.4,64.8,29.84,ESE,111,7.4,7.4,72,0.00,CLR,SKC,0.09,WeatherDisplay:10.37,2013-06-05 01:07:00,
2013-06-04 20:12:00,74.2,65.0,29.84,East,93,6.9,6.9,73,0.00,CLR,SKC,0.09,WeatherDisplay:10.37,2013-06-05 01:12:00,
2013-06-04 20:17:00,74.1,64.9,29.84,ESE,113,7.4,7.4,73,0.00,CLR,SKC,0.09,WeatherDisplay:10.37,2013-06-05 01:17:00,
2013-06-04 20:22:00,74.0,64.8,29.85,ESE,105,4.2,4.2,73,0.00,CLR,SKC,0.09,WeatherDisplay:10.37,2013-06-05 01:22:00,
2013-06-04 20:27:00,73.9,65.1,29.85,East,86,3.5,3.5,74,0.00,CLR,SKC,0.09,WeatherDisplay:10.37,2013-06-05 01:27:00,
2013-06-04 20:32:00,73.7,65.3,29.85,East,81,2.3,2.3,75,0.00,CLR,SKC,0.09,WeatherDisplay:10.37,2013-06-05 01:32:00,
2013-06-04 20:37:00,73.5,65.1,29.85,East,94,4.2,4.2,75,0.00,CLR,SKC,0.09,WeatherDisplay:10.37,2013-06-05 01:37:00,
2013-06-04 20:42:00,73.2,64.8,29.85,East,80,2.3,2.3,75,0.00,CLR,SKC,0.09,WeatherDisplay:10.37,2013-06-05 01:42:00,
2013-06-04 20:47:00,73.1,65.1,29.85,East,84,2.3,2.3,76,0.00,CLR,SKC,0.09,WeatherDisplay:10.37,2013-06-05 01:47:00,
2013-06-04 20:52:00,72.9,64.9,29.85,East,80,1.2,1.2,76,0.00,CLR,SKC,0.09,WeatherDisplay:10.37,2013-06-05 01:52:00,
2013-06-04 20:57:00,72.7,65.1,29.85,East,84,2.3,2.3,77,0.00,CLR,SKC,0.09,WeatherDisplay:10.37,2013-06-05 01:57:00,
2013-06-04 21:02:00,72.4,65.2,29.85,East,82,2.3,2.3,78,0.00,CLR,SKC,0.09,WeatherDisplay:10.37,2013-06-05 02:02:00,
2013-06-04 21:07:00,72.4,64.8,29.86,East,83,3.5,3.5,77,0.00,CLR,SKC,0.09,WeatherDisplay:10.37,2013-06-05 02:07:00,
2013-06-04 21:12:00,72.2,65.0,29.86,East,79,2.3,2.3,78,0.00,CLR,SKC,0.09,WeatherDisplay:10.37,2013-06-05 02:12:00,
2013-06-04 21:17:00,72.1,64.9,29.86,ENE,78,0.0,0.0,78,0.00,CLR,SKC,0.09,WeatherDisplay:10.37,2013-06-05 02:17:00,
2013-06-04 21:22:00,72.0,64.8,29.86,ENE,72,1.1,1.1,78,0.00,CLR,SKC,0.09,WeatherDisplay:10.37,2013-06-05 02:22:00,
2013-06-04 21:27:00,71.8,64.9,29.86,ENE,63,3.2,3.2,79,0.00,CLR,SKC,0.09,WeatherDisplay:10.37,2013-06-05 02:27:00,
2013-06-04 21:32:00,71.7,64.8,29.86,NE,54,3.5,3.5,79,0.00,CLR,SKC,0.09,WeatherDisplay:10.37,2013-06-05 02:32:00,
2013-06-04 21:37:00,71.6,64.7,29.86,NE,49,3.5,3.5,79,0.00,CLR,SKC,0.09,WeatherDisplay:10.37,2013-06-05 02:37:00,
2013-06-04 21:42:00,71.6,64.7,29.86,NE,49,3.5,3.5,79,0.00,CLR,SKC,0.09,WeatherDisplay:10.37,2013-06-05 02:42:00,
2013-06-04 21:47:00,71.3,64.8,29.86,ENE,62,4.2,4.2,80,0.00,CLR,SKC,0.09,WeatherDisplay:10.37,2013-06-05 02:47:00,
2013-06-04 21:52:00,71.1,64.6,29.86,NNE,31,3.5,3.5,80,0.00,CLR,SKC,0.09,WeatherDisplay:10.37,2013-06-05 02:52:00,
2013-06-04 21:57:00,70.9,64.8,29.87,ENE,58,2.3,2.3,81,0.00,CLR,SKC,0.09,WeatherDisplay:10.37,2013-06-05 02:57:00,
2013-06-04 22:02:00,70.7,64.6,29.87,NE,54,4.6,4.6,81,0.00,CLR,SKC,0.09,WeatherDisplay:10.37,2013-06-05 03:02:00,
2013-06-04 22:07:00,70.8,64.7,29.87,NNE,19,3.5,0.0,81,0.00,CLR,SKC,0.09,WeatherDisplay:10.37,2013-06-05 03:07:00,
2013-06-04 22:12:00,70.8,64.7,29.88,NNE,23,1.1,0.0,81,0.00,CLR,SKC,0.09,WeatherDisplay:10.37,2013-06-05 03:12:00,
2013-06-04 22:17:00,70.7,64.9,29.88,North,353,2.3,2.3,82,0.00,CLR,SKC,0.09,WeatherDisplay:10.37,2013-06-05 03:17:00,
2013-06-04 22:22:00,70.7,64.9,29.89,North,354,2.3,2.3,82,0.00,CLR,SKC,0.09,WeatherDisplay:10.37,2013-06-05 03:22:00,
2013-06-04 22:27:00,70.7,64.9,29.89,North,356,4.2,4.2,82,0.00,CLR,SKC,0.09,WeatherDisplay:10.37,2013-06-05 03:27:00,
2013-06-04 22:32:00,70.1,64.7,29.90,NW,317,6.9,6.9,83,0.00,CLR,SKC,0.09,WeatherDisplay:10.37,2013-06-05 03:32:00,
2013-06-04 22:37:00,69.7,64.3,29.90,North,356,8.5,8.5,83,0.00,CLR,SKC,0.09,WeatherDisplay:10.37,2013-06-05 03:37:00,
2013-06-04 22:42:00,69.3,64.6,29.89,NNE,13,10.4,10.4,85,0.00,CLR,SKC,0.09,WeatherDisplay:10.37,2013-06-05 03:42:00,
2013-06-04 22:47:00,68.8,64.4,29.90,NW,314,9.5,9.5,86,0.00,CLR,SKC,0.09,WeatherDisplay:10.37,2013-06-05 03:47:00,
2013-06-04 22:52:00,68.4,64.7,29.90,NNE,18,8.5,8.5,88,0.00,CLR,SKC,0.09,WeatherDisplay:10.37,2013-06-05 03:52:00,
2013-06-04 22:57:00,68.3,64.6,29.90,North,356,10.6,10.6,88,0.00,CLR,SKC,0.09,WeatherDisplay:10.37,2013-06-05 03:57:00,
2013-06-04 23:01:00,68.2,64.5,29.90,North,356,9.5,9.5,88,0.00,CLR,SKC,0.09,WeatherDisplay:10.37,2013-06-05 04:01:00,
2013-06-04 23:02:00,68.1,64.4,29.90,NE,45,9.2,9.2,88,0.00,CLR,SKC,0.09,WeatherDisplay:10.37,2013-06-05 04:02:00,
2013-06-04 23:07:00,68.0,64.6,29.90,North,351,11.7,11.7,89,0.00,CLR,SKC,0.09,WeatherDisplay:10.37,2013-06-05 04:07:00,
2013-06-04 23:12:00,68.0,64.6,29.90,North,350,9.2,9.2,89,0.00,CLR,SKC,0.09,WeatherDisplay:10.37,2013-06-05 04:12:00,
2013-06-04 23:17:00,68.0,64.6,29.90,NNW,343,10.6,10.6,89,0.00,CLR,SKC,0.09,WeatherDisplay:10.37,2013-06-05 04:17:00,
2013-06-04 23:22:00,67.9,64.5,29.90,North,2,10.4,10.4,89,0.00,CLR,SKC,0.09,WeatherDisplay:10.37,2013-06-05 04:22:00,
2013-06-04 23:27:00,67.8,64.4,29.91,NNW,344,6.9,6.9,89,0.00,CLR,SKC,0.09,WeatherDisplay:10.37,2013-06-05 04:27:00,
2013-06-04 23:32:00,67.8,64.4,29.91,NNE,19,5.8,5.8,89,0.00,CLR,SKC,0.09,WeatherDisplay:10.37,2013-06-05 04:32:00,
2013-06-04 23:37:00,67.7,64.3,29.90,North,1,3.5,3.5,89,0.00,CLR,SKC,0.09,WeatherDisplay:10.37,2013-06-05 04:37:00,
2013-06-04 23:42:00,67.6,63.9,29.89,East,79,8.5,8.5,88,0.00,CLR,SKC,0.09,WeatherDisplay:10.37,2013-06-05 04:42:00,
2013-06-04 23:47:00,67.5,63.8,29.89,ENE,64,7.4,7.4,88,0.00,CLR,SKC,0.09,WeatherDisplay:10.37,2013-06-05 04:47:00,
2013-06-04 23:52:00,67.4,63.7,29.90,NE,44,6.9,6.9,88,0.00,CLR,SKC,0.09,WeatherDisplay:10.37,2013-06-05 04:52:00,
2013-06-04 23:57:00,67.3,63.9,29.89,ENE,71,8.5,8.5,89,0.00,CLR,SKC,0.09,WeatherDisplay:10.37,2013-06-05 04:57:00,